Regional Weather Roundup
Issued by NWS Charleston, SC

Current Version | Previous Version | Graphics & Text | Print | Product List | Glossary On
Versions: 1 2 3 4 5 6 7 8 9 10 11 12 13 14 15 16 17 18 19 20 21 22 23 24 25 26 27 28 29 30 31 32 33 34 35 36 37 38 39 40 41 42 43 44 45 46 47 48 49 50
000
ASUS42 KCHS 241627
RWRCHS

REGIONAL WEATHER ROUNDUP
NATIONAL WEATHER SERVICE CHARLESTON SC
1100 AM EST FRI NOV 24 2017

NOTE: "FAIR" INDICATES FEW OR NO CLOUDS BELOW 12,000 FEET WITH NO
SIGNIFICANT WEATHER AND/OR OBSTRUCTIONS TO VISIBILITY.

NOT ALL STATIONS ARE QUALITY CONTROLLED. USE DATA WITH CAUTION...
ESPECIALLY DEWPOINT OBSERVATIONS.

SCZ027-030-031-034>040-042>050-241700-
...SOUTHEAST SOUTH CAROLINA...

CITY           SKY/WX    TMP DP  RH WIND       PRES   REMARKS
N CHARLESTON   MOSUNNY   55  33  43 NE12      30.00F
WATERFRONT PRK   N/A     53  38  56 N13       29.85S
JOHNS ISLAND   PTSUNNY   55  36  47 N10       29.98F
PINOPOLIS        N/A     48  36  61 NE8       29.95F
MONCKS CORNER  FAIR      54  30  40 N5        29.99F
SUMMERVILLE    FAIR      54  34  47 NE5       30.01F
BEAUFORT MCAS  SUNNY     56  39  53 N12       30.01S
BEAUFORT ARPT  FAIR      54  36  50 NE13      29.98F HAZE
HILTON HEAD IS MOSUNNY   55  37  50 N14       30.00S
WALTERBORO     SUNNY     55  36  47 N8        30.00F
ALLENDALE      FAIR      55  34  44 NE8       30.00F

...SOUTHERN MIDLANDS AND PEE DEE...

CITY           SKY/WX    TMP DP  RH WIND       PRES   REMARKS
GEORGETOWN     CLOUDY    50  30  46 N9        30.01F
KINGSTREE      FAIR      50  30  46 N7        30.02F
ORANGEBURG     SUNNY     53  32  44 E8        30.02F
BARNWELL         N/A     57  34  41 NE7       30.02F
AIKEN          FAIR      54  32  43 NE8       30.05F
MANNING        FAIR      54  34  47 MISG      30.01F
COLUMBIA       MOSUNNY   54  33  45 E6        30.03F
SUMTER         SUNNY     53  32  44 NE9       30.00F
FLORENCE       SUNNY     51  32  48 NE10      30.03F
MYRTLE BEACH   PTSUNNY   49  31  49 N15       30.01F
N MYRTLE BEACH PTSUNNY   51  33  50 N10G20    29.99F

$$

GAZ063-065-086>088-099>101-113>116-118-119-134>141-150-241700-
...SOUTHEAST GEORGIA...

CITY           SKY/WX    TMP DP  RH WIND       PRES   REMARKS
SAVANNAH ARPT  CLOUDY    58  37  45 N8        30.00F
HUNTER AAF     MOSUNNY   56  37  47 NE6       29.97F
FORT STEWART   SUNNY     59  34  39 NE7       29.98F
STATESBORO     SUNNY     59  31  34 NE7       30.00F
SYLVANIA       SUNNY     58  39  48 E10       30.02F
CLAXTON        FAIR      59  34  38 N9        30.01F

...CSRA...CENTRAL AND FAR SOUTHEAST GEORGIA...

CITY           SKY/WX    TMP DP  RH WIND       PRES   REMARKS
THOMSON        SUNNY     53  38  57 NE5       30.09F
AUGUSTA-BUSH   SUNNY     54  37  52 CALM      30.03F
AUGUSTA-DANIEL SUNNY     54  36  50 VRB5      30.04S
SWAINSBORO     FAIR      57  34  41 E8        30.02F
VIDALIA        SUNNY     61  37  41 NE10      30.01F
EASTMAN        FAIR      62  16  17 NE3       30.05S
HAZLEHURST     FAIR      60  21  22 NE5       29.99F
ALMA           SUNNY     60  38  43 NE8       30.00S
WAYCROSS       SUNNY     61  34  36 NE9       29.99F
JESUP          FAIR      63  34  34 CALM      29.99F
BAXLEY         FAIR      59  36  41 NE8       29.99F
BRUNSWICK      MOSUNNY   59  37  44 N16       29.98F
SAINT SIMONS   PTSUNNY   57  42  57 N10       29.97S

$$

SCZ027-028-034-036>038-045-046-048>050-GAZ119-141-241700-
...LAKE AND SUPPLEMENTAL COASTAL OBSERVATIONS...

STATION/POSITION TIME  TEMP    WIND        PRES    WAVE   SWELL
                       AIR SEA DIR/SP/G            HT/PER HT/PER/DIR
                 (UTC) (F)     (DEG/KT/KT) (MB)    (FT/S) (FT/S/D)
WINYAH BAY       1545   49      10/  8     1016.0S
LAKE MURRAY      1620   52      30/  3/  5 1016.3F
ACE BASIN NERRS  1545   52     360/  3     1016.0S
FORT PULASKI     1600   54 60   20/ 12/ 15 1015.5
SAPELO ISLAND    1600   56      20/ 12     1015.0

$$

ANZ835-935-AMZ111-154-330-350-352-354-370-450-454-472-241700-
...C-MAN AND BUOY OBSERVATIONS...

STATION/POSITION TIME  TEMP    WIND        PRES    WAVE   SWELL
                       AIR SEA DIR/SP/G            HT/PER HT/PER/DIR
                 (UTC) (F)     (DEG/KT/KT) (MB)    (FT/S) (FT/S/D)
BUOY 41004       1610   62 74   30/ 21/ 29 1013.3
BUOY 41008       1550   59 66   30/ 21/ 25 1013.7R   7/ 6
FOLLY BEACH CMAN 1600   53      10/ 13/ 15 1015.7F
CAPERS NEARSHORE 1608   50 61   20/ 16/ 23 1014.5F
FRIPP NEARSHORE  1608   52 61   10/ 14/ 23 1013.8F


STATION/POSITION TIME  TEMP    WIND        PRES    WAVE   SWELL
                       AIR SEA DIR/SP/G            HT/PER HT/PER/DIR
                 (UTC) (F)     (DEG/KT/KT) (MB)    (FT/S) (FT/S/D)
5E ST. MARYS GA  1600      66                N/A     7/ 6   2/ 70/11
FRYING PAN BUOY  1610   60 72   20/ 21/ 27 1013.7
BUOY 41025       1610   61 72   20/ 19/ 25 1015.2
CAPE LOOKOUT NC  1600           10/ 16/ 21 1015.8F
BUOY 41002       1550   74 76  140/ 10/ 14 1009.4F   9/ 8   8/ 30/ 8
BUOY 41010       NOT AVBL
ST AUGUSTINE FL  1600   59 67  330/ 14/ 17 1013.4R


$$




USA.gov is the U.S. government's official web portal to all federal, state and local government web resources and services.